EN

Hourly Weather Altdobern

Today, 18 January, Monday

Time Temperature Precipitation Wind Pressure Humidity
00:00 -7°C° 0 mm 1 mps 756 mmHg 93%
01:00 -7°C° 0 mm 1 mps 756 mmHg 93%
02:00 -7°C° 0 mm 1 mps 755 mmHg 92%
03:00 -7°C° 0 mm 1 mps 755 mmHg 92%
04:00 -8°C° 0 mm 2 mps 755 mmHg 91%
05:00 -6°C° 0 mm 1 mps 755 mmHg 92%
06:00 -6°C° 0 mm 1 mps 755 mmHg 93%
07:00 -6°C° 0 mm 1 mps 755 mmHg 93%
08:00 -4°C° 0.1 mm 1 mps 755 mmHg 94%
09:00 -3°C° 0.1 mm 1 mps 755 mmHg 94%
10:00 -4°C° 0.1 mm 2 mps 755 mmHg 94%
11:00 -3°C° 0.1 mm 2 mps 755 mmHg 95%
12:00 -2°C° 0.1 mm 3 mps 755 mmHg 96%
13:00 -1°C° 0.1 mm 3 mps 755 mmHg 96%
14:00 0°C° 0 mm 3 mps 754 mmHg 96%
15:00 0°C° 0 mm 3 mps 754 mmHg 96%
16:00 0°C° 0 mm 3 mps 754 mmHg 95%
17:00 -1°C° 0.1 mm 4 mps 754 mmHg 96%
18:00 -1°C° 0.1 mm 5 mps 753 mmHg 97%
19:00 -1°C° 0.1 mm 5 mps 753 mmHg 97%
20:00 -1°C° 0.3 mm 5 mps 753 mmHg 97%
21:00 -1°C° 0.3 mm 5 mps 753 mmHg 97%
22:00 -2°C° 0.3 mm 6 mps 753 mmHg 97%
23:00 -2°C° 0.2 mm 6 mps 752 mmHg 96%

Tomorrow, 19 January, Tuesday

Time Temperature Precipitation Wind Pressure Humidity
00:00 -2°C° 0.2 mm 6 mps 752 mmHg 95%
01:00 -2°C° 0.2 mm 6 mps 752 mmHg 95%
02:00 -2°C° 0 mm 6 mps 752 mmHg 94%
03:00 -2°C° 0 mm 6 mps 751 mmHg 94%
04:00 -2°C° 0 mm 6 mps 751 mmHg 93%
05:00 -1°C° 0 mm 5 mps 751 mmHg 92%
06:00 -1°C° 0 mm 5 mps 750 mmHg 91%
07:00 -1°C° 0 mm 5 mps 750 mmHg 89%
08:00 -1°C° 0 mm 5 mps 750 mmHg 91%
09:00 -2°C° 0 mm 6 mps 749 mmHg 92%
10:00 -2°C° 0 mm 6 mps 748 mmHg 94%
11:00 -2°C° 0.8 mm 6 mps 748 mmHg 95%
12:00 -2°C° 0.8 mm 6 mps 747 mmHg 96%
13:00 -2°C° 0.8 mm 6 mps 746 mmHg 97%
14:00 -2°C° 1 mm 6 mps 745 mmHg 97%
15:00 0°C° 1 mm 5 mps 744 mmHg 97%
16:00 0°C° 1 mm 5 mps 743 mmHg 97%
17:00 +1°C° 1.1 mm 6 mps 743 mmHg 96%
18:00 +2°C° 1.1 mm 6 mps 743 mmHg 94%
19:00 +3°C° 1.1 mm 7 mps 743 mmHg 93%
20:00 +3°C° 0.2 mm 7 mps 743 mmHg 91%
21:00 +2°C° 0.2 mm 8 mps 743 mmHg 90%
22:00 +2°C° 0.2 mm 8 mps 743 mmHg 89%
23:00 +3°C° 0 mm 7 mps 743 mmHg 88%

Day after tomorrow, 20 January, Wednesday

Time Temperature Precipitation Wind Pressure Humidity
00:00 +3°C° 0 mm 7 mps 744 mmHg 88%
01:00 +2°C° 0 mm 6 mps 744 mmHg 88%
02:00 +2°C° 0 mm 6 mps 744 mmHg 87%
03:00 +2°C° 0 mm 6 mps 744 mmHg 87%
04:00 +2°C° 0 mm 6 mps 743 mmHg 86%
05:00 +1°C° 0 mm 6 mps 743 mmHg 84%
06:00 +1°C° 0 mm 6 mps 743 mmHg 82%
07:00 +1°C° 0 mm 6 mps 743 mmHg 79%
08:00 +1°C° 0 mm 6 mps 743 mmHg 78%
09:00 +2°C° 0 mm 6 mps 743 mmHg 77%
10:00 +2°C° 0 mm 6 mps 743 mmHg 75%
11:00 +2°C° 0 mm 6 mps 743 mmHg 75%
12:00 +3°C° 0 mm 6 mps 743 mmHg 75%
13:00 +3°C° 0 mm 6 mps 743 mmHg 75%
14:00 +3°C° 0 mm 5 mps 743 mmHg 76%
15:00 +3°C° 0 mm 5 mps 743 mmHg 77%
16:00 +3°C° 0 mm 4 mps 742 mmHg 78%
17:00 +3°C° 0 mm 4 mps 743 mmHg 78%
18:00 +3°C° 0 mm 4 mps 743 mmHg 78%
19:00 +1°C° 0 mm 4 mps 743 mmHg 78%
20:00 +1°C° 0 mm 4 mps 743 mmHg 78%
21:00 +1°C° 0 mm 4 mps 743 mmHg 79%
22:00 +1°C° 0 mm 4 mps 743 mmHg 79%
23:00 +1°C° 0 mm 4 mps 742 mmHg 77%

21 January, Thursday

Time Temperature Precipitation Wind Pressure Humidity
00:00 +1°C° 0 mm 4 mps 742 mmHg 75%
01:00 +1°C° 0 mm 4 mps 742 mmHg 73%
02:00 +1°C° 0 mm 4 mps 742 mmHg 74%
03:00 0°C° 0 mm 4 mps 742 mmHg 75%
04:00 +1°C° 0 mm 3 mps 741 mmHg 77%
05:00 +1°C° 0 mm 3 mps 741 mmHg 76%
06:00 0°C° 0 mm 3 mps 741 mmHg 75%
07:00 0°C° 0 mm 3 mps 741 mmHg 74%
08:00 0°C° 0 mm 5 mps 741 mmHg 73%
09:00 -1°C° 0 mm 6 mps 741 mmHg 73%
10:00 0°C° 0 mm 7 mps 741 mmHg 72%
11:00 0°C° 0 mm 7 mps 741 mmHg 72%
12:00 +2°C° 0 mm 6 mps 741 mmHg 72%
13:00 +3°C° 0 mm 6 mps 740 mmHg 73%
14:00 +3°C° 0 mm 5 mps 740 mmHg 73%
15:00 +2°C° 0 mm 5 mps 740 mmHg 74%
16:00 +2°C° 0 mm 5 mps 739 mmHg 74%
17:00 +2°C° 0 mm 5 mps 739 mmHg 76%
18:00 +2°C° 0 mm 5 mps 739 mmHg 77%
19:00 +2°C° 0 mm 6 mps 739 mmHg 79%
20:00 +2°C° 0 mm 5 mps 739 mmHg 80%
21:00 +2°C° 0 mm 5 mps 739 mmHg 81%
22:00 +2°C° 0 mm 5 mps 739 mmHg 82%
23:00 +2°C° 0 mm 5 mps 739 mmHg 83%

22 January, Friday

Time Temperature Precipitation Wind Pressure Humidity
00:00 +2°C° 0 mm 5 mps 739 mmHg 84%
01:00 +3°C° 0 mm 4 mps 739 mmHg 85%
02:00 +2°C° 0 mm 5 mps 738 mmHg 85%
03:00 +2°C° 0 mm 5 mps 737 mmHg 85%
04:00 +2°C° 0 mm 5 mps 737 mmHg 84%
05:00 +2°C° 0.1 mm 5 mps 737 mmHg 83%
06:00 +2°C° 0.1 mm 5 mps 736 mmHg 82%
07:00 +2°C° 0.1 mm 5 mps 736 mmHg 80%
08:00 +2°C° 0 mm 5 mps 736 mmHg 78%
09:00 +2°C° 0 mm 5 mps 736 mmHg 76%
10:00 +2°C° 0 mm 5 mps 736 mmHg 74%
11:00 +3°C° 0 mm 5 mps 736 mmHg 74%
12:00 +6°C° 0 mm 5 mps 735 mmHg 74%
13:00 +7°C° 0 mm 5 mps 735 mmHg 73%
14:00 +6°C° 0 mm 4 mps 735 mmHg 77%
15:00 +5°C° 0 mm 4 mps 735 mmHg 81%
16:00 +5°C° 0 mm 3 mps 735 mmHg 84%
17:00 +4°C° 0.1 mm 3 mps 736 mmHg 86%
18:00 +4°C° 0.1 mm 3 mps 736 mmHg 88%
19:00 +3°C° 0.1 mm 3 mps 736 mmHg 90%
20:00 +3°C° 0.2 mm 3 mps 737 mmHg 89%
21:00 +3°C° 0.2 mm 3 mps 737 mmHg 87%
22:00 +4°C° 0.2 mm 3 mps 737 mmHg 86%
23:00 +3°C° 0 mm 3 mps 738 mmHg 87%

23 January, Saturday

Time Temperature Precipitation Wind Pressure Humidity
00:00 +3°C° 0 mm 3 mps 738 mmHg 87%
01:00 +2°C° 0 mm 3 mps 738 mmHg 88%
02:00 +2°C° 0 mm 3 mps 738 mmHg 89%
03:00 +1°C° 0 mm 3 mps 738 mmHg 90%
04:00 0°C° 0 mm 3 mps 738 mmHg 91%
05:00 +1°C° 0 mm 2 mps 738 mmHg 91%
06:00 +1°C° 0 mm 2 mps 739 mmHg 91%
07:00 -1°C° 0 mm 2 mps 739 mmHg 92%
08:00 +1°C° 0 mm 2 mps 739 mmHg 88%
09:00 +2°C° 0 mm 2 mps 739 mmHg 85%
10:00 +1°C° 0 mm 3 mps 740 mmHg 82%
11:00 +3°C° 0 mm 2 mps 740 mmHg 80%
12:00 +4°C° 0 mm 2 mps 740 mmHg 78%
13:00 +4°C° 0 mm 2 mps 740 mmHg 76%
14:00 +5°C° 0 mm 1 mps 740 mmHg 79%
15:00 +4°C° 0 mm 1 mps 740 mmHg 82%
16:00 +4°C° 0 mm 1 mps 740 mmHg 84%
17:00 +3°C° 0 mm 1 mps 741 mmHg 86%
18:00 +3°C° 0 mm 1 mps 741 mmHg 88%
19:00 +2°C° 0 mm 1 mps 741 mmHg 89%
20:00 +1°C° 0 mm 2 mps 742 mmHg 90%
21:00 +1°C° 0 mm 2 mps 742 mmHg 91%
22:00 +1°C° 0 mm 2 mps 743 mmHg 92%
23:00 +1°C° 0 mm 2 mps 743 mmHg 92%
Show more